CW0343 Weather Reports


Display with metric or nautical units.
time (UTC)temp
F
wind
direction
speed
MPH
gust
MPH
rain 1hr
in
rain 24hr
in
rain mn
in
humidity
%
barometer
mb
20260906011304 76 355 4.0 7.0 0.00 0.00 0.00 53 1019.8
20260906010304 76 59 3.0 6.0 0.00 0.00 0.00 53 1020.1
20260906005306 75 99 5.0 10.0 0.00 0.00 0.00 54 1020.3
20260906004805 75 15 4.0 8.0 0.00 0.00 0.00 54 1020.3
20260906004304 75 69 6.0 10.0 0.00 0.00 0.00 55 1020.5
20260906003804 74 106 5.0 8.0 0.00 0.00 0.00 60 1020.5
20260906003304 74 190 3.0 7.0 0.00 0.00 0.00 60 1020.7
20260906002804 74 55 1.0 6.0 0.00 0.00 0.00 86 1020.7
20260906002306 60 3 0.0 0.0 0.00 0.00 0.00 86 1020.9
20260906001306 60 2 0.0 0.0 0.00 0.00 0.00 86 1021.0
20260906000805 60 3 0.0 0.0 0.00 0.00 0.00 86 1021.0
20260906000304 60 3 0.0 0.0 0.00 0.00 0.00 86 1021.0
20260905235804 60 3 0.0 0.0 0.00 0.00 0.00 86 1021.1
20260905235306 60 3 0.0 0.0 0.00 0.00 0.00 86 1021.1
20260905234805 60 3 0.0 0.0 0.00 0.00 0.00 86 1021.0
20260905234305 60 4 0.0 0.0 0.00 0.00 0.00 86 1021.0
20260905233304 60 3 0.0 0.0 0.00 0.00 0.00 86 1021.0
20260905232805 60 3 0.0 0.0 0.00 0.00 0.00 86 1021.0
20260905231804 60 3 0.0 0.0 0.00 0.00 0.00 86 1021.0
20260905231306 60 3 0.0 0.0 0.00 0.00 0.00 86 1021.1
20260905230818 60 3 0.0 0.0 0.00 0.00 0.00 86 1021.0
20260905230305 60 2 0.0 0.0 0.00 0.00 0.00 86 1021.1
20260905225805 60 3 0.0 0.0 0.00 0.00 0.00 86 1021.1
20260905225306 60 3 0.0 0.0 0.00 0.00 0.00 86 1021.1
20260905224805 60 2 0.0 0.0 0.00 0.00 0.00 86 1021.1
20260905223805 60 3 0.0 0.0 0.00 0.00 0.00 86 1021.1
20260905223304 60 3 0.0 0.0 0.00 0.00 0.00 86 1021.0
20260905222804 60 2 0.0 0.0 0.00 0.00 0.00 86 1021.1
20260905221304 60 2 0.0 0.0 0.00 0.00 0.00 86 1021.0
20260905220804 60 3 0.0 0.0 0.00 0.00 0.00 86 1021.0
20260905215306 60 3 0.0 0.0 0.00 0.00 0.00 86 1020.8
20260905214804 60 3 0.0 0.0 0.00 0.00 0.00 86 1020.7
20260905214304 60 3 0.0 0.0 0.00 0.00 0.00 86 1020.6
20260905213804 60 2 0.0 0.0 0.00 0.00 0.00 86 1020.5
20260905213304 60 3 0.0 0.0 0.00 0.00 0.00 86 1020.4
20260905212805 60 3 0.0 0.0 0.00 0.00 0.00 86 1020.4
20260905212306 60 3 0.0 0.0 0.00 0.00 0.00 86 1020.3
20260905211804 60 3 0.0 0.0 0.00 0.00 0.00 86 1020.2
20260905211305 60 3 0.0 0.0 0.00 0.00 0.00 86 1020.2
20260905210804 60 3 0.0 0.0 0.00 0.00 0.00 86 1020.2
20260905210304 60 3 0.0 0.0 0.00 0.00 0.00 86 1020.1
20260905205306 60 3 0.0 0.0 0.00 0.00 0.00 86 1020.0
20260905204305 60 3 0.0 0.0 0.00 0.00 0.00 86 1019.9
20260905203805 60 3 0.0 0.0 0.00 0.00 0.00 86 1019.8
20260905202804 60 3 0.0 0.0 0.00 0.00 0.00 86 1019.7
20260905202306 60 3 0.0 0.0 0.00 0.00 0.00 86 1019.6
20260905201804 60 3 0.0 0.0 0.00 0.00 0.00 86 1019.6
20260905201305 60 2 0.0 0.0 0.00 0.00 0.00 86 1019.6
20260905195306 60 3 0.0 0.0 0.00 0.00 0.00 86 1019.4
20260905194804 60 3 0.0 0.0 0.00 0.00 0.00 86 1019.4
20260905193305 60 3 0.0 0.0 0.00 0.00 0.00 86 1019.3
20260905192806 60 3 0.0 0.0 0.00 0.00 0.00 86 1019.3
20260905192306 60 3 0.0 0.0 0.00 0.00 0.00 86 1019.2
20260905191304 60 3 0.0 0.0 0.00 0.00 0.00 86 1019.1
20260905190304 60 3 0.0 0.0 0.00 0.00 0.00 86 1019.1
20260905185805 60 3 0.0 0.0 0.00 0.00 0.00 86 1019.0
20260905185306 60 3 0.0 0.0 0.00 0.00 0.00 86 1019.0
20260905184304 60 3 0.0 0.0 0.00 0.00 0.00 86 1018.8
20260905183804 60 3 0.0 0.0 0.00 0.00 0.00 86 1018.7
20260905183305 60 3 0.0 0.0 0.00 0.00 0.00 86 1018.7
20260905182804 60 3 0.0 0.0 0.00 0.00 0.00 86 1018.6
20260905182306 60 3 0.0 0.0 0.00 0.00 0.00 86 1018.6
20260905181804 60 3 0.0 0.0 0.00 0.00 0.00 86 1018.6
20260905181304 60 2 0.0 0.0 0.00 0.00 0.00 86 1018.5
20260905180805 60 3 0.0 0.0 0.00 0.00 0.00 86 1018.4
20260905180305 60 3 0.0 0.0 0.00 0.00 0.00 86 1018.4
20260905175805 60 3 0.0 0.0 0.00 0.00 0.00 86 1018.4
20260905175306 60 3 0.0 0.0 0.00 0.00 0.00 86 1018.4
20260905174804 60 3 0.0 0.0 0.00 0.00 0.00 86 1018.4
20260905174304 60 3 0.0 0.0 0.00 0.00 0.00 86 1018.4
20260905173306 60 3 0.0 0.0 0.00 0.00 0.00 86 1018.4
20260905172805 60 3 0.0 0.0 0.00 0.00 0.00 86 1018.5
20260905172305 60 2 0.0 0.0 0.00 0.00 0.00 86 1018.5
20260905171804 60 3 0.0 0.0 0.00 0.00 0.00 86 1018.5
20260905171304 60 3 0.0 0.0 0.00 0.00 0.00 86 1018.5
20260905170804 60 3 0.0 0.0 0.00 0.00 0.00 86 1018.5
20260905170304 60 3 0.0 0.0 0.00 0.00 0.00 86 1018.4
20260905165804 60 3 0.0 0.0 0.00 0.00 0.00 86 1018.5
20260905165306 60 3 0.0 0.0 0.00 0.00 0.00 86 1018.5
20260905164804 60 2 0.0 0.0 0.00 0.00 0.00 86 1018.4
20260905164305 60 3 0.0 0.0 0.00 0.00 0.00 86 1018.4
20260905163804 60 3 0.0 0.0 0.00 0.00 0.00 86 1018.4
20260905162804 60 3 0.0 0.0 0.00 0.00 0.00 86 1018.5
20260905162306 60 3 0.0 0.0 0.00 0.00 0.00 86 1018.4
20260905160805 60 58 0.0 0.0 0.00 0.00 0.00 86 1018.5
20260905155805 60 58 0.0 0.0 0.00 0.00 0.00 86 1018.6
20260905155306 60 58 0.0 0.0 0.00 0.00 0.00 86 1018.7
20260905154804 60 58 0.0 0.0 0.00 0.00 0.00 86 1018.6
20260905154306 60 58 0.0 2.0 0.00 0.00 0.00 85 1018.6
20260905153806 60 58 1.0 3.0 0.00 0.00 0.00 86 1018.5
20260905153304 61 57 1.0 3.0 0.00 0.00 0.00 86 1018.6
20260905152804 61 56 0.0 0.0 0.00 0.00 0.00 86 1018.7
20260905152306 61 56 0.0 0.0 0.00 0.00 0.00 86 1018.7
20260905151304 61 56 0.0 0.0 0.00 0.00 0.00 86 1018.8
20260905145804 62 55 0.0 0.0 0.00 0.00 0.00 86 1019.0
20260905145307 62 55 0.0 0.0 0.00 0.00 0.00 86 1019.1
20260905144804 62 55 0.0 0.0 0.00 0.00 0.00 86 1019.2
20260905144304 62 55 0.0 0.0 0.00 0.00 0.00 86 1019.2
20260905143805 62 55 0.0 0.0 0.00 0.00 0.00 86 1019.3
20260905143304 62 55 0.0 0.0 0.00 0.00 0.00 86 1019.3
20260905142804 62 55 0.0 0.0 0.00 0.00 0.00 86 1019.4
20260905142306 61 55 0.0 0.0 0.00 0.00 0.00 86 1019.4
20260905141804 61 55 0.0 0.0 0.00 0.00 0.00 86 1019.5
20260905141305 61 55 0.0 0.0 0.00 0.00 0.00 85 1019.5
20260905140804 61 55 0.0 0.0 0.00 0.00 0.00 85 1019.6
20260905140304 61 55 0.0 0.0 0.00 0.00 0.00 85 1019.7
20260905135307 61 55 1.0 3.0 0.00 0.00 0.00 85 1019.7
20260905134805 62 21 2.0 3.0 0.00 0.00 0.00 85 1019.7
20260905134304 62 5 1.0 2.0 0.00 0.00 0.00 85 1019.8
20260905133804 62 5 1.0 2.0 0.00 0.00 0.00 85 1019.9
20260905133304 62 5 1.0 3.0 0.00 0.00 0.00 85 1019.9
20260905132805 62 5 2.0 3.0 0.00 0.00 0.00 85 1019.9
20260905132306 62 5 1.0 3.0 0.00 0.00 0.00 85 1019.9
20260905131304 62 4 2.0 3.0 0.00 0.00 0.00 85 1020.0
20260905130304 62 5 2.0 3.0 0.00 0.00 0.00 85 1020.0
20260905125804 62 0 2.0 5.0 0.00 0.00 0.00 85 1020.0
20260905125306 62 5 2.0 3.0 0.00 0.00 0.00 85 1020.2
20260905124805 62 5 2.0 3.0 0.00 0.00 0.00 85 1020.2
20260905124304 62 5 1.0 3.0 0.00 0.00 0.00 85 1020.1
20260905123804 62 5 2.0 3.0 0.00 0.00 0.00 84 1020.0
20260905123304 62 5 2.0 3.0 0.00 0.00 0.00 84 1020.0
20260905122804 63 5 1.0 3.0 0.00 0.00 0.00 84 1020.1
20260905122306 63 5 2.0 3.0 0.00 0.00 0.00 84 1020.1
20260905121804 63 0 1.0 3.0 0.00 0.00 0.00 84 1020.1
20260905121304 63 0 1.0 5.0 0.00 0.00 0.00 84 1020.1
20260905120804 63 0 2.0 3.0 0.00 0.00 0.00 84 1020.1
20260905120304 63 0 2.0 3.0 0.00 0.00 0.00 84 1020.1
20260905115805 63 358 2.0 3.0 0.00 0.00 0.00 84 1020.1
20260905115306 63 355 1.0 3.0 0.00 0.00 0.00 84 1020.1
20260905114804 63 355 3.0 5.0 0.00 0.00 0.00 84 1020.1
20260905114305 63 355 4.0 6.0 0.00 0.00 0.00 84 1020.1
20260905113304 63 0 3.0 5.0 0.00 0.00 0.00 84 1020.1
20260905112805 63 9 2.0 5.0 0.00 0.00 0.00 84 1020.1
20260905112306 63 355 2.0 9.0 0.00 0.00 0.00 83 1020.1
20260905111804 63 12 2.0 5.0 0.00 0.00 0.00 83 1020.1
20260905110306 63 15 3.0 7.0 0.00 0.00 0.00 83 1020.2
20260905105804 64 18 3.0 5.0 0.00 0.00 0.00 83 1020.3
20260905105306 64 17 2.0 5.0 0.00 0.00 0.00 83 1020.3
20260905104804 64 18 2.0 5.0 0.00 0.00 0.00 83 1020.3
20260905104304 64 19 2.0 3.0 0.00 0.00 0.00 83 1020.1
20260905103804 64 19 2.0 5.0 0.00 0.00 0.00 83 1020.1
20260905103304 64 24 2.0 5.0 0.00 0.00 0.00 82 1019.9
20260905102804 64 16 3.0 5.0 0.00 0.00 0.00 82 1019.9
20260905102306 64 19 2.0 5.0 0.00 0.00 0.00 82 1019.9
20260905101804 64 21 2.0 5.0 0.00 0.00 0.00 82 1019.8
20260905101304 64 21 2.0 3.0 0.00 0.00 0.00 82 1019.8
20260905100806 64 21 3.0 7.0 0.00 0.00 0.00 82 1019.8
20260905100304 65 9 2.0 5.0 0.00 0.00 0.00 82 1019.7
20260905095804 65 17 4.0 7.0 0.00 0.00 0.00 81 1019.7
20260905095306 65 1 5.0 8.0 0.00 0.00 0.00 81 1019.6
20260905094804 65 0 5.0 9.0 0.00 0.00 0.00 81 1019.5
20260905094305 65 4 2.0 9.0 0.00 0.00 0.00 81 1019.4
20260905093804 65 27 3.0 8.0 0.00 0.00 0.00 81 1019.4
20260905092306 66 35 2.0 6.0 0.00 0.00 0.00 80 1019.1
20260905091805 66 11 2.0 6.0 0.00 0.00 0.00 80 1019.0
20260905091304 66 20 3.0 8.0 0.00 0.00 0.00 80 1018.9
20260905090804 66 19 3.0 7.0 0.00 0.00 0.00 80 1018.7
20260905090306 66 10 3.0 7.0 0.00 0.00 0.00 80 1018.7
20260905085804 66 61 3.0 9.0 0.00 0.00 0.00 80 1018.6
20260905085305 67 32 4.0 9.0 0.00 0.00 0.00 79 1018.5
20260905084806 67 27 4.0 10.0 0.00 0.00 0.00 79 1018.4
20260905084305 67 35 4.0 10.0 0.00 0.00 0.00 79 1018.3
20260905082805 68 66 3.0 12.0 0.00 0.00 0.00 78 1018.1
20260905082307 68 33 4.0 8.0 0.00 0.00 0.00 78 1018.0
20260905081805 69 38 6.0 12.0 0.00 0.00 0.00 78 1018.0
20260905081305 69 50 5.0 12.0 0.00 0.00 0.00 77 1017.9
20260905080804 70 44 6.0 12.0 0.00 0.00 0.00 77 1017.9
20260905080304 70 32 7.0 12.0 0.00 0.00 0.00 76 1017.8
20260905075804 70 47 6.0 10.0 0.00 0.00 0.00 76 1017.7
20260905075306 71 45 6.0 13.0 0.00 0.00 0.00 75 1017.7
20260905074805 71 48 7.0 12.0 0.00 0.00 0.00 75 1017.6
20260905074305 71 52 7.0 12.0 0.00 0.00 0.00 74 1017.6
20260905073804 72 47 8.0 13.0 0.00 0.00 0.00 74 1017.6
20260905073305 72 66 9.0 12.0 0.00 0.00 0.00 73 1017.5
20260905072804 72 47 7.0 14.0 0.00 0.00 0.00 73 1017.5
20260905072306 73 40 11.0 17.0 0.00 0.00 0.00 72 1017.5
20260905071804 73 49 8.0 14.0 0.00 0.00 0.00 71 1017.4
20260905071305 73 51 7.0 14.0 0.00 0.00 0.00 71 1017.4
20260905070804 74 22 8.0 13.0 0.00 0.00 0.00 70 1017.4
20260905070305 74 48 9.0 13.0 0.00 0.00 0.00 70 1017.3
20260905065805 74 48 7.0 14.0 0.00 0.00 0.00 69 1017.2
20260905065306 75 14 6.0 12.0 0.00 0.00 0.00 69 1017.2
20260905064804 75 37 6.0 12.0 0.00 0.00 0.00 68 1017.1
20260905064304 76 66 9.0 15.0 0.00 0.00 0.00 67 1017.1
20260905063804 76 65 6.0 12.0 0.00 0.00 0.00 66 1017.1
20260905063304 76 50 6.0 13.0 0.00 0.00 0.00 66 1017.0
20260905062805 77 48 6.0 13.0 0.00 0.00 0.00 65 1016.9
20260905061304 78 17 6.0 12.0 0.00 0.00 0.00 64 1016.8
20260905060804 78 30 8.0 16.0 0.00 0.00 0.00 63 1016.8
20260905060305 78 68 7.0 13.0 0.00 0.00 0.00 63 1016.7
20260905055805 79 29 8.0 14.0 0.00 0.00 0.00 62 1016.7
20260905055306 79 26 6.0 15.0 0.00 0.00 0.00 62 1016.7
20260905054804 79 54 6.0 15.0 0.00 0.00 0.00 61 1016.7
20260905054305 80 5 8.0 14.0 0.00 0.00 0.00 61 1016.6
20260905053805 80 12 7.0 15.0 0.00 0.00 0.00 60 1016.6
20260905053304 80 15 8.0 16.0 0.00 0.00 0.00 60 1016.6
20260905052804 80 355 7.0 12.0 0.00 0.00 0.00 58 1016.6
20260905052306 80 46 5.0 9.0 0.00 0.00 0.00 58 1016.6
20260905051306 79 22 5.0 12.0 0.00 0.00 0.00 58 1016.8
20260905050306 80 58 4.0 9.0 0.00 0.00 0.00 57 1016.9
20260905045804 81 67 5.0 10.0 0.00 0.00 0.00 56 1017.1
20260905045306 81 29 5.0 13.0 0.00 0.00 0.00 56 1017.1
20260905044804 81 81 5.0 12.0 0.00 0.00 0.00 57 1017.1
20260905044305 81 37 6.0 12.0 0.00 0.00 0.00 55 1017.1
20260905043804 80 33 4.0 12.0 0.00 0.00 0.00 54 1017.1
20260905043304 79 112 3.0 6.0 0.00 0.00 0.00 51 1017.3
20260905042307 80 115 2.0 12.0 0.00 0.00 0.00 52 1017.3
20260905041804 80 153 3.0 7.0 0.00 0.00 0.00 53 1017.4
20260905041306 79 120 3.0 9.0 0.00 0.00 0.00 53 1017.5
20260905040806 79 88 4.0 9.0 0.00 0.00 0.00 54 1017.5
20260905040304 79 84 1.0 3.0 0.00 0.00 0.00 55 1017.7
20260905035804 79 85 4.0 10.0 0.00 0.00 0.00 54 1017.8
20260905035306 80 35 3.0 6.0 0.00 0.00 0.00 54 1017.8
20260905034804 80 34 5.0 9.0 0.00 0.00 0.00 53 1017.8
20260905033804 79 17 4.0 10.0 0.00 0.00 0.00 55 1018.1
20260905033304 79 75 5.0 9.0 0.00 0.00 0.00 56 1018.2
20260905032804 79 43 6.0 10.0 0.00 0.00 0.00 56 1018.2
20260905032306 78 56 4.0 5.0 0.00 0.00 0.00 57 1018.5
20260905031804 77 74 5.0 8.0 0.00 0.00 0.00 57 1018.7
20260905031304 77 85 4.0 8.0 0.00 0.00 0.00 57 1018.7
20260905030804 78 105 8.0 12.0 0.00 0.00 0.00 56 1018.8
20260905030306 78 112 4.0 12.0 0.00 0.00 0.00 53 1018.7
20260905025804 78 114 1.0 9.0 0.00 0.00 0.00 54 1018.9
20260905024804 77 109 3.0 7.0 0.00 0.00 0.00 54 1019.1
20260905023804 78 71 3.0 9.0 0.00 0.00 0.00 55 1019.1
20260905022804 78 66 2.0 8.0 0.00 0.00 0.00 54 1019.5
20260905022306 78 66 3.0 6.0 0.00 0.00 0.00 54 1019.5
20260905021304 78 79 2.0 5.0 0.00 0.00 0.00 56 1019.7
20260905020805 77 77 2.0 5.0 0.00 0.00 0.00 56 1019.8
20260905015804 76 107 4.0 7.0 0.00 0.00 0.00 58 1020.1
20260905015306 77 122 3.0 7.0 0.00 0.00 0.00 57 1020.2
20260905014804 77 138 3.0 3.0 0.00 0.00 0.00 55 1020.3
20260905014304 77 137 4.0 8.0 0.00 0.00 0.00 56 1020.5
20260905013805 77 100 3.0 9.0 0.00 0.00 0.00 56 1020.6
20260905013306 77 115 6.0 10.0 0.00 0.00 0.00 58 1020.7
20260905012805 77 53 5.0 10.0 0.00 0.00 0.00 57 1020.8